This is the latest recevied weather packets stored in our database for station/object K4KMJ. If no packets are shown the sender has not sent any weather packets the latest 10 day(s).
| Time | Temp. | Humidity | Pressure | Rain* | Wind** | Luminosity | Snow |
|---|---|---|---|---|---|---|---|
| 1777922208 | 25.56° C | 63% | 1018.2 hPa | 0 mm | - | 408 W/m² | - |
| 1777921899 | 25° C | 63% | 1018.2 hPa | 0 mm | - | 680 W/m² | - |
| 1777921595 | 25.56° C | 63% | 1018.5 hPa | 0 mm | - | 339 W/m² | - |
| 1777921292 | 25° C | 63% | 1018.6 hPa | 0 mm | - | 838 W/m² | - |
| 1777920988 | 25.56° C | 63% | 1018.3 hPa | 0 mm | - | 852 W/m² | - |
| 1777920685 | 25.56° C | 63% | 1018.5 hPa | 0 mm | - | 938 W/m² | - |
| 1777920381 | 25.56° C | 63% | 1018.5 hPa | 0 mm | - | 787 W/m² | - |
| 1777920076 | 25° C | 63% | 1018.8 hPa | 0 mm | - | 769 W/m² | - |
| 1777919773 | 25° C | 63% | 1018.8 hPa | 0 mm | - | 851 W/m² | - |
| 1777919471 | 25° C | 63% | 1018.7 hPa | 0 mm | - | 670 W/m² | - |
| 1777919168 | 25° C | 63% | 1018.8 hPa | 0 mm | - | 807 W/m² | - |
| 1777918866 | 25° C | 62% | 1018.8 hPa | 0 mm | - | 741 W/m² | - |
| 1777918563 | 25° C | 61% | 1019.1 hPa | 0 mm | - | 459 W/m² | - |
| 1777918260 | 26.11° C | 61% | 1019.1 hPa | 0 mm | - | 1009 W/m² | - |
| 1777917959 | 25° C | 62% | 1019 hPa | 0 mm | - | 918 W/m² | - |
| 1777917658 | 25° C | 61% | 1018.8 hPa | 0 mm | - | 546 W/m² | - |
| 1777917354 | 25° C | 61% | 1019.1 hPa | 0 mm | - | 988 W/m² | - |
| 1777917051 | 25.56° C | 61% | 1018.9 hPa | 0 mm | - | 558 W/m² | - |
| 1777916750 | 25.56° C | 60% | 1019 hPa | 0 mm | - | 962 W/m² | - |
| 1777916446 | 25.56° C | 61% | 1019.1 hPa | 0 mm | - | 993 W/m² | - |
| 1777916143 | 25° C | 62% | 1019.3 hPa | 0 mm | - | 1080 W/m² | - |
| 1777915840 | 25° C | 64% | 1019.1 hPa | 0 mm | - | 361 W/m² | - |
| 1777915536 | 24.44° C | 64% | 1019 hPa | 0 mm | - | 311 W/m² | - |
| 1777915233 | 24.44° C | 63% | 1019.2 hPa | 0 mm | - | 263 W/m² | - |
| 1777914930 | 24.44° C | 62% | 1019.3 hPa | 0 mm | - | 237 W/m² | - |
* Rain latest hour (hover to see other rain measurements)
** Current wind speed in m/s (hover to see current wind gust speed)